Tracking 29089 objects as of 12-Jul-2024
HD Live streaming from Space Station
objects crossing your sky now

STARLINK-11148

Track STARLINK-11148 now!
10-day predictions
STARLINK-11148 is classified as:


NORAD ID: 60044
Int'l Code: 2024-112G
Perigee: 346.4 km
Apogee: 347.3 km
Inclination: 53.2 °
Period: 91.3 minutes
Semi major axis: 6717 km
RCS: Unknown
Launch date: June 8, 2024
Source: United States (US)
Launch site: AIR FORCE WESTERN TEST RANGE (AFWTR)
Your satellite tracking list
Your tracking list is empty




NASA's NSSDC Master Catalog

Two Line Element Set (TLE):
1 60044U 24112G   24194.20147761  .00010723  00000-0  69412-4 0  9991
2 60044  53.1562  13.2123 0000702  79.5036 280.6063 15.76732750  6272
Source of the keplerian elements: AFSPC